Christchurch, New Zealand

10:11 AM NZDT on March 26, 2017 (GMT +1300)
Christchurch International

Weather History for NZCH - April, 2013

Change the Weather History Date:

Wednesday, April 3, 2013

  Actual Average Record
Temperature  
Mean Temperature 62 °F -  
Max Temperature 73 °F 63 °F 78 °F (2016)
Min Temperature 50 °F 45 °F 33 °F (2009)
Degree Days  
Heating Degree Days 3    
Growing Degree Days 12 (Base 50)    
Moisture  
Dew Point 51 °F    
Average Humidity 69    
Maximum Humidity 94    
Minimum Humidity 47    
Precipitation  
Precipitation 0.00 in - - ()
Sea Level Pressure  
Sea Level Pressure 29.61 in    
Wind  
Wind Speed 9 mph ()    
Max Wind Speed 28 mph    
Max Gust Speed 39 mph    
Visibility 6.2 miles    
Events Rain    
Averages and records for this station are not official NWS values.
T = Trace of Precipitation, MM = Missing Value Source: Averaged Metar Reports

Daily Weather History Graph

Daily Weather History Graph

Search for Another Location

Airport or City:

Trip Planner

Search our weather history database for the weather conditions in past years. The results will help you decide how hot, cold, wet, or windy it might be!

Date:

Astronomy

Apr. 03, 2013 Rise Set
Actual Time 7:48 AM NZDT 7:17 PM NZDT
Civil Twilight 7:19 AM NZDT 7:45 PM NZDT
Nautical Twilight 6:46 AM NZDT 8:18 PM NZDT
Astronomical Twilight 6:13 AM NZDT 8:52 PM NZDT
Moon No Moon Rise 2:47 PM NZDT (4/3)
Length of Visible Light 12h 25m
Length of Day
11h 28m
Waning Gibbous, 53% of the Moon is Illuminated
Apr 3
Waning Gibbous
Apr 3
Last Quarter
Apr 10
New
Apr 19
First Quarter
Apr 26
Full

Hourly Weather History & Observations

Time (NZDT) Temp. Dew Point Humidity Pressure Visibility Wind Dir Wind Speed Gust Speed Precip Events Conditions
12:00 AM 57.2 °F 51.8 °F 82% 29.71 in - SE 3.5 mph - N/A   Clear
1:00 AM 57.2 °F 51.8 °F 82% 29.68 in - Calm Calm - N/A   Clear
2:00 AM 59.0 °F 53.6 °F 82% 29.65 in - ENE 4.6 mph - N/A   Clear
3:00 AM 57.2 °F 51.8 °F 82% 29.65 in - SSE 1.2 mph - N/A   Clear
4:00 AM 62.6 °F 51.8 °F 68% 29.62 in - North 8.1 mph - N/A   Clear
5:00 AM 66.2 °F 51.8 °F 60% 29.59 in - NNE 9.2 mph - N/A   Clear
6:00 AM 66.2 °F 50.0 °F 56% 29.59 in - North 11.5 mph - N/A   Clear
7:00 AM 66.2 °F 50.0 °F 56% 29.56 in - NNE 11.5 mph - N/A   Clear
8:00 AM 68.0 °F 50.0 °F 52% 29.56 in - North 16.1 mph - N/A   Clear
9:00 AM 68.0 °F 50.0 °F 52% 29.53 in - North 6.9 mph - N/A   Clear
10:00 AM 68.0 °F 50.0 °F 52% 29.53 in - North 11.5 mph - N/A   Clear
11:00 AM 69.8 °F 50.0 °F 49% 29.53 in - NNE 12.7 mph - N/A   Clear
12:00 PM 71.6 °F 51.8 °F 50% 29.50 in - North 12.7 mph - N/A   Clear
1:00 PM 73.4 °F 51.8 °F 47% 29.50 in - NNE 10.4 mph - N/A   Clear
4:00 PM 60.8 °F 53.6 °F 77% 29.56 in 6.2 mi SW 20.7 mph - N/A   Mostly Cloudy
4:25 PM 60.8 °F 51.8 °F 72% 29.59 in 6.2 mi SW 25.3 mph - N/A   Mostly Cloudy
5:00 PM 60.8 °F 51.8 °F 72% 29.59 in 6.2 mi SSW 27.6 mph 39.1 mph N/A   Mostly Cloudy
6:00 PM 59.0 °F 50.0 °F 72% 29.59 in 6.2 mi SSW 24.2 mph - N/A   Mostly Cloudy
7:00 PM 57.2 °F 50.0 °F 77% 29.65 in 6.2 mi SSW 15.0 mph - N/A   Mostly Cloudy
8:00 PM 53.6 °F 50.0 °F 88% 29.68 in 6.2 mi SSW 15.0 mph - N/A Rain Rain Showers
9:00 PM 51.8 °F 50.0 °F 94% 29.71 in 6.2 mi SSW 18.4 mph - N/A Rain Rain Showers
10:00 PM 51.8 °F 46.4 °F 82% 29.77 in 6.2 mi SSW 15.0 mph - N/A   Mostly Cloudy
11:00 PM 50.0 °F 46.4 °F 87% 29.80 in 6.2 mi SSW 11.5 mph - N/A   Mostly Cloudy